Weather History for LEVT - November, 2012

Change the Weather History Date:

Sunday, November 11, 2012

  Actual Average Record
Temperature  
Mean Temperature 42 °F -  
Max Temperature 46 °F 51 °F 68 °F (2011)
Min Temperature 37 °F 36 °F 24 °F (2007)
Degree Days  
Heating Degree Days 24    
Moisture  
Dew Point 39 °F    
Average Humidity 92    
Maximum Humidity 100    
Minimum Humidity 76    
Precipitation  
Precipitation 0.00 in - - ()
Sea Level Pressure  
Sea Level Pressure 29.96 in    
Wind  
Wind Speed 3 mph ()    
Max Wind Speed 14 mph    
Max Gust Speed -    
Visibility 6.2 miles    
Events Rain    
Averages and records for this station are not official NWS values.
T = Trace of Precipitation, MM = Missing Value Source: Averaged Metar Reports

Daily Weather History Graph

Daily Weather History Graph

Search for Another Location

Airport or City:

Trip Planner

Search our weather history database for the weather conditions in past years. The results will help you decide how hot, cold, wet, or windy it might be!

Date:

Astronomy

Nov. 11, 2012 Rise Set
Actual Time 7:58 AM CET 5:51 PM CET
Civil Twilight 7:28 AM CET 6:21 PM CET
Nautical Twilight 6:53 AM CET 6:55 PM CET
Astronomical Twilight 6:20 AM CET 7:28 PM CET
Moon 4:51 AM CET (11/11) 4:08 PM CET (11/11)
Length of Visible Light 10h 53m
Length of Day
9h 52m
Waning Crescent, 9% of the Moon is Illuminated
Nov 11
Waning Crescent
Nov 13
New
Nov 20
First Quarter
Nov 28
Full
Dec 6
Last Quarter

Hourly Weather History & Observations

Time (CET) Temp. Windchill Dew Point Humidity Pressure Visibility Wind Dir Wind Speed Gust Speed Precip Events Conditions
12:00 AM 39.2 °F - 39.2 °F 100% 29.80 in 6.2 mi West 1.2 mph - N/A   Scattered Clouds
12:30 AM 39.2 °F - 39.2 °F 100% 29.80 in 6.2 mi Calm Calm - N/A   Scattered Clouds
1:00 AM 39.2 °F - 39.2 °F 100% 29.80 in 6.2 mi Calm Calm - N/A   Scattered Clouds
1:30 AM 37.4 °F - 37.4 °F 100% 29.80 in 6.2 mi Variable 1.2 mph - N/A   Scattered Clouds
2:00 AM 37.4 °F - 37.4 °F 100% 29.80 in 6.2 mi Variable 1.2 mph - N/A   Scattered Clouds
2:30 AM 39.2 °F - 39.2 °F 100% 29.80 in 6.2 mi Calm Calm - N/A   Scattered Clouds
3:00 AM 37.4 °F - 37.4 °F 100% 29.80 in 6.2 mi SW 2.3 mph - N/A   Scattered Clouds
3:30 AM 39.2 °F - 39.2 °F 100% 29.80 in 6.2 mi Variable 2.3 mph - N/A   Scattered Clouds
4:00 AM 41.0 °F 39.0 °F 39.2 °F 93% 29.80 in 6.2 mi West 3.5 mph - N/A   Scattered Clouds
4:30 AM 39.2 °F - 39.2 °F 100% 29.80 in 6.2 mi SW 1.2 mph - N/A   Scattered Clouds
5:00 AM 39.2 °F - 39.2 °F 100% 29.80 in 6.2 mi Calm Calm - N/A   Scattered Clouds
5:30 AM 39.2 °F - 39.2 °F 100% 29.83 in 6.2 mi Calm Calm - N/A   Scattered Clouds
6:00 AM 39.2 °F - 37.4 °F 93% 29.83 in 6.2 mi Calm Calm - N/A   Scattered Clouds
6:30 AM 37.4 °F - 35.6 °F 93% 29.83 in 6.2 mi Variable 1.2 mph - N/A   Scattered Clouds
7:00 AM 39.2 °F - 39.2 °F 100% 29.83 in 6.2 mi West 1.2 mph - N/A   Scattered Clouds
8:00 AM 39.2 °F - 37.4 °F 93% 29.86 in 6.2 mi NNW 2.3 mph - N/A   Scattered Clouds
8:30 AM 41.0 °F 36.4 °F 37.4 °F 87% 29.89 in 6.2 mi NNW 6.9 mph - N/A   Scattered Clouds
9:00 AM 41.0 °F 37.1 °F 37.4 °F 87% 29.89 in 6.2 mi NW 5.8 mph - N/A Rain Light Rain
9:30 AM 41.0 °F 37.1 °F 37.4 °F 87% 29.92 in 6.2 mi NW 5.8 mph - N/A Rain Light Rain
10:00 AM 41.0 °F 35.8 °F 37.4 °F 87% 29.92 in 6.2 mi NW 8.1 mph - N/A   Scattered Clouds
10:30 AM 41.0 °F 35.8 °F 39.2 °F 93% 29.95 in 6.2 mi NW 8.1 mph - N/A Rain Light Rain
11:00 AM 42.8 °F 37.0 °F 39.2 °F 87% 29.95 in 6.2 mi NW 10.4 mph - N/A   Scattered Clouds
11:30 AM 42.8 °F 37.0 °F 39.2 °F 87% 29.95 in 6.2 mi NW 10.4 mph - N/A   Scattered Clouds
12:00 PM 44.6 °F 39.7 °F 41.0 °F 87% 29.98 in 6.2 mi NW 9.2 mph - N/A Rain Light Rain
12:30 PM 46.4 °F 40.7 °F 41.0 °F 81% 29.98 in 6.2 mi NW 12.7 mph - N/A   Scattered Clouds
1:00 PM 44.6 °F 38.8 °F 41.0 °F 87% 29.98 in 6.2 mi NW 11.5 mph - N/A   Scattered Clouds
1:30 PM 46.4 °F 40.4 °F 41.0 °F 81% 29.98 in 6.2 mi NW 13.8 mph - N/A   Scattered Clouds
2:00 PM 46.4 °F 40.7 °F 39.2 °F 76% 29.98 in 6.2 mi NNW 12.7 mph - N/A Rain Light Rain
2:30 PM 46.4 °F 41.5 °F 41.0 °F 81% 30.01 in 6.2 mi NNW 10.4 mph - N/A Rain Light Rain
3:00 PM 42.8 °F 37.5 °F 41.0 °F 93% 30.01 in 5.6 mi North 9.2 mph - N/A Rain Light Rain
3:30 PM 44.6 °F 39.2 °F 39.2 °F 81% 30.01 in 6.2 mi North 10.4 mph - N/A   Scattered Clouds
4:00 PM 46.4 °F 41.9 °F 41.0 °F 81% 30.04 in 6.2 mi NNW 9.2 mph - N/A   Scattered Clouds
4:30 PM 46.4 °F 41.9 °F 41.0 °F 81% 30.04 in 6.2 mi NNW 9.2 mph - N/A   Scattered Clouds
5:00 PM 44.6 °F 39.7 °F 39.2 °F 81% 30.06 in 6.2 mi NW 9.2 mph - N/A   Mostly Cloudy
5:30 PM 42.8 °F 36.6 °F 41.0 °F 93% 30.06 in 6.2 mi NW 11.5 mph - N/A Rain Light Rain
6:00 PM 42.8 °F - 39.2 °F 87% 30.09 in 6.2 mi Variable 2.3 mph - N/A   Mostly Cloudy
6:30 PM 42.8 °F - 39.2 °F 87% 30.09 in 6.2 mi WNW 2.3 mph - N/A   Mostly Cloudy
7:00 PM 41.0 °F - 39.2 °F 93% 30.12 in 6.2 mi NW 2.3 mph - N/A   Scattered Clouds
7:30 PM 41.0 °F - 39.2 °F 93% 30.15 in 6.2 mi NNW 1.2 mph - N/A   Scattered Clouds
8:30 PM 39.2 °F - 39.2 °F 100% 30.15 in 6.2 mi Variable 1.2 mph - N/A   Scattered Clouds
9:00 PM 39.2 °F - 39.2 °F 100% 30.15 in 6.2 mi West 1.2 mph - N/A   Scattered Clouds
9:30 PM 39.2 °F - 39.2 °F 100% 30.18 in 6.2 mi Variable 1.2 mph - N/A   Scattered Clouds
10:00 PM 39.2 °F - 37.4 °F 93% 30.18 in 6.2 mi Calm Calm - N/A   Mostly Cloudy
10:30 PM 39.2 °F - 39.2 °F 100% 30.21 in 6.2 mi Variable 2.3 mph - N/A   Mostly Cloudy
11:00 PM 41.0 °F 39.0 °F 39.2 °F 93% 30.21 in 6.2 mi West 3.5 mph - N/A   Mostly Cloudy
11:30 PM 41.0 °F - 39.2 °F 93% 30.21 in 6.2 mi Calm Calm - N/A   Scattered Clouds